Tracking 19245 objects as of 17-Aug-2018
HD Live streaming from Space Station
objects crossing your sky now

NOAA 16 DEB

Track NOAA 16 DEB now!
10-day predictions


NORAD ID: 41402
Int'l Code: 2000-055KF
Perigee: 855.9 km
Apogee: 908.5 km
Inclination: 98.9 °
Period: 102.5 minutes
Semi major axis: 7253 km
RCS: Unknown
Launch date: September 21, 2000
Source: United States (US)
Launch site: AIR FORCE WESTERN TEST RANGE (AFWTR)

Note: This is SATELLITE DEBRIS
aabbcc
Your satellite tracking list
Your tracking list is empty




NASA's NSSDC Master Catalog

Two Line Element Set (TLE):
1 41402U 00055KF  18228.37237374 +.00000301 +00000-0 +21091-3 0  9998
2 41402 098.8564 289.4079 0036261 060.4586 300.0190 14.05440614129216
Source of the keplerian elements: AFSPC